K5BWX-7 Weather Reports


time (UTC)temp
F
wind
direction
speed
knots
gust
knots
rain 1hr
in
rain 24hr
in
rain mn
in
humidity
%
barometer
mb
20260510120010 57 360 0.0 0.0 0.00 0.00 0.00 92 1015.2
20260510114546 54 360 0.0 0.0 0.00 0.00 0.00 91 1015.0
20260510113010 52 360 0.0 0.0 0.00 0.00 0.00 91 1014.8
20260510111551 52 360 0.0 0.0 0.00 0.00 0.00 89 1014.6
20260510110021 52 360 0.0 0.0 0.00 0.00 0.00 89 1014.3
20260510104601 52 360 0.0 0.0 0.00 0.00 0.00 89 1014.3
20260510103023 52 360 0.0 0.0 0.00 0.00 0.00 88 1014.1
20260510101558 53 360 0.0 0.0 0.00 0.00 0.00 87 1014.1
20260510100035 54 360 0.0 0.0 0.00 0.00 0.00 87 1013.8
20260510094519 54 360 0.0 0.0 0.00 0.00 0.00 86 1013.6
20260510093052 56 319 0.0 0.0 0.00 0.00 0.00 84 1013.5
20260510091519 58 319 0.0 0.0 0.00 0.00 0.00 82 1013.4
20260510090054 60 279 0.9 4.3 0.00 0.00 0.00 86 1013.5
20260510084537 60 280 2.6 6.1 0.00 0.00 0.00 87 1013.3
20260510083054 58 296 0.9 4.3 0.00 0.00 0.00 91 1013.2
20260510081541 53 285 0.0 3.5 0.00 0.00 0.00 93 1013.0
20260510080006 51 85 0.0 0.0 0.00 0.00 0.00 88 1012.8
20260510074545 50 85 0.0 0.0 0.00 0.00 0.00 86 1012.6
20260510073014 51 85 0.0 0.0 0.00 0.00 0.00 86 1012.5
20260510071551 51 85 0.0 0.0 0.00 0.00 0.00 86 1012.4
20260510070036 51 85 0.0 0.0 0.00 0.00 0.00 85 1012.5
20260510064507 52 85 0.0 0.0 0.00 0.00 0.00 84 1012.5
20260510063040 52 85 0.0 0.0 0.00 0.00 0.00 84 1012.4
20260510061513 53 85 0.0 0.9 0.00 0.00 0.00 85 1012.5
20260510060050 53 112 0.0 1.7 0.00 0.00 0.00 84 1012.5
20260510054525 53 115 0.0 0.0 0.00 0.00 0.00 82 1012.5
20260510053043 54 115 0.0 0.9 0.00 0.00 0.00 83 1012.6
20260510051524 54 86 0.0 1.7 0.00 0.00 0.00 83 1012.5
20260510050107 54 86 0.9 3.5 0.00 0.00 0.00 81 1012.6
20260510044544 55 97 0.0 0.0 0.00 0.00 0.00 79 1012.4
20260510043056 55 97 0.0 0.9 0.00 0.00 0.00 79 1012.4
20260510041534 56 103 0.9 3.5 0.00 0.00 0.00 79 1012.4
20260510040008 56 182 0.0 0.0 0.00 0.00 0.00 76 1012.3
20260510034556 57 182 0.0 0.0 0.00 0.00 0.00 76 1012.3
20260510033015 57 263 0.0 0.0 0.00 0.00 0.00 75 1012.3
20260510031549 58 263 0.0 0.0 0.00 0.00 0.00 75 1012.2
20260510030042 59 263 0.0 0.0 0.00 0.00 0.00 72 1012.1
20260510024509 59 263 0.0 0.0 0.00 0.00 0.00 71 1011.9
20260510023031 60 263 0.0 0.0 0.00 0.00 0.00 70 1011.7
20260510021508 61 263 0.0 0.0 0.00 0.00 0.00 68 1011.4
20260510020051 62 263 0.0 0.0 0.00 0.00 0.00 66 1011.3
20260510014539 64 263 0.0 0.0 0.00 0.00 0.00 65 1011.2
20260510013047 65 263 0.0 0.0 0.00 0.00 0.00 62 1011.0
20260510011531 67 263 0.0 0.0 0.00 0.00 0.00 60 1010.7
20260510010004 69 263 0.0 0.0 0.00 0.00 0.00 58 1010.3
20260510004545 72 242 0.0 0.0 0.00 0.00 0.00 53 1010.3
20260510003007 75 242 0.0 0.0 0.00 0.00 0.00 48 1010.1
20260510001548 77 242 0.0 0.0 0.00 0.00 0.00 46 1010.1
20260510000032 79 242 0.0 3.5 0.00 0.00 0.00 42 1010.1
20260509234507 79 281 0.0 3.5 0.00 0.00 0.00 37 1009.9
20260509233024 79 342 1.7 4.3 0.00 0.00 0.00 36 1009.8
20260509231503 79 98 0.9 4.3 0.00 0.00 0.00 39 1009.8
20260509230041 79 250 0.0 3.5 0.00 0.00 0.00 40 1009.7
20260509224522 78 21 0.9 1.7 0.00 0.00 0.00 38 1009.6
20260509223045 78 299 0.9 5.2 0.00 0.00 0.00 38 1009.6
20260509221522 78 290 2.6 7.8 0.00 0.00 0.00 37 1009.5
20260509220058 79 321 4.3 7.8 0.00 0.00 0.00 38 1009.6
20260509214537 79 345 1.7 6.1 0.00 0.00 0.00 39 1009.4
20260509213055 79 205 3.5 6.1 0.00 0.00 0.00 40 1009.6
20260509211538 79 209 3.5 9.6 0.00 0.00 0.00 39 1009.3
20260509210019 79 63 0.0 5.2 0.00 0.00 0.00 45 1009.4
20260509204557 78 299 2.6 6.1 0.00 0.00 0.00 43 1009.4
20260509203019 78 257 4.3 7.8 0.00 0.00 0.00 42 1009.4
20260509201604 77 102 0.0 6.1 0.00 0.00 0.00 53 1009.5
20260509200043 77 241 3.5 7.0 0.00 0.00 0.00 44 1009.6
20260509194515 75 132 1.7 6.1 0.00 0.00 0.00 51 1009.8
20260509193038 76 113 2.6 5.2 0.00 0.00 0.00 54 1010.0
20260509191510 75 179 2.6 5.2 0.00 0.00 0.00 55 1010.0
20260509190048 74 64 0.9 6.1 0.00 0.00 0.00 58 1010.1
20260509184539 73 169 1.7 5.2 0.00 0.00 0.00 59 1010.2
20260509183048 73 121 0.9 4.3 0.00 0.00 0.00 59 1010.1
20260509181530 73 153 3.5 5.2 0.00 0.00 0.00 61 1010.0
20260509180006 72 105 0.9 5.2 0.00 0.00 0.00 61 1009.9
20260509174546 72 146 1.7 4.3 0.00 0.00 0.00 61 1009.8
20260509173109 73 101 2.6 5.2 0.00 0.00 0.00 61 1009.8
20260509173002 73 103 0.9 5.2 0.00 0.00 0.00 61 1009.8
20260509171545 72 326 3.5 7.8 0.00 0.00 0.00 61 1009.8
20260509170020 72 160 4.3 7.8 0.00 0.00 0.00 59 1010.1
20260509164553 72 5 2.6 6.1 0.00 0.00 0.00 60 1010.2
20260509163015 71 318 2.6 7.0 0.00 0.00 0.00 63 1010.3
20260509161554 70 292 3.5 7.0 0.00 0.00 0.00 63 1010.4
20260509160036 70 205 0.9 7.8 0.00 0.00 0.00 65 1010.4
20260509154511 69 304 1.7 8.7 0.00 0.00 0.00 67 1010.3
20260509153039 69 262 3.5 7.0 0.00 0.00 0.00 69 1010.3
20260509151514 68 286 3.5 7.0 0.00 0.00 0.00 70 1010.1
20260509150104 67 302 3.5 10.4 0.00 0.00 0.00 71 1010.0
20260509144551 67 316 3.5 9.6 0.00 0.00 0.00 72 1009.9
20260509143051 66 308 4.3 8.7 0.00 0.00 0.00 73 1009.8
20260509141536 65 291 5.2 10.4 0.00 0.00 0.00 74 1009.8
20260509140007 65 271 7.0 11.3 0.00 0.00 0.00 75 1009.7
20260509134548 65 209 4.3 9.6 0.00 0.00 0.00 76 1009.7
20260509133006 63 239 5.2 9.6 0.00 0.00 0.00 78 1009.8
20260509131545 63 271 3.5 9.6 0.00 0.00 0.00 79 1009.7
20260509130022 62 276 3.5 7.8 0.00 0.00 0.00 81 1009.7
20260509124612 61 250 1.7 7.8 0.00 0.00 0.00 83 1009.7
20260509123014 59 226 1.7 8.7 0.00 0.00 0.00 85 1009.7
20260509121553 58 263 2.6 8.7 0.00 0.00 0.00 87 1009.9